Theta_e
320 319 320 320 320 320 320 321 321 321 322 322 322 322 322 322 323 323 322 322 321 321 322 322 322 322 321 321 321 321 319 315 316 318 318 317 329 339 344 346 347 352 357 337 329 324 318 320 320 325 325 325 324 326 331 330 326 321 315 309 308 310 310 315 315 316 319 317 320 322 324 322 319 324 328 335 332 332 331 330 333 336 336 340 343 346 349 352
319 319 319 319 319 319 320 320 320 321 321 321 321 322 322 322 322 322 322 321 321 320 322 322 321 321 321 320 321 321 317 315 315 316 317 327 343 343 348 350 351 355 351 327 321 319 320 318 319 323 322 320 331 325 331 324 328 318 312 310 308 309 313 319 320 321 321 320 321 322 324 323 322 325 327 325 326 327 325 327 331 333 337 341 344 345 346 348
319 319 319 319 319 319 320 320 320 320 321 321 321 321 321 321 321 321 321 321 320 320 321 321 321 321 321 321 320 320 317 317 318 312 317 340 345 345 346 350 353 361 330 321 323 321 321 319 319 317 317 318 322 321 327 322 325 320 312 308 311 316 317 320 322 322 324 324 322 322 323 324 324 325 328 324 324 325 323 325 331 332 332 338 342 344 345 346
318 318 319 319 319 319 320 320 320 320 320 320 320 320 321 321 321 321 321 320 320 320 320 321 321 321 320 321 321 318 317 318 308 311 320 357 353 349 347 348 354 356 331 324 324 322 323 320 318 321 317 314 315 322 317 319 317 314 314 306 312 318 317 320 324 325 325 326 324 324 324 323 325 327 327 327 326 326 328 332 331 331 335 340 342 344 345 345
318 318 318 319 319 319 319 319 320 320 319 320 320 320 320 320 320 320 320 320 319 319 319 322 322 321 321 321 319 318 316 299 303 316 332 356 357 355 349 350 356 344 330 327 326 323 322 319 318 319 317 311 315 316 316 318 318 311 313 315 318 320 319 323 324 326 327 327 325 324 323 323 328 330 330 329 324 324 329 333 335 336 341 341 341 343 344 344
317 317 317 318 318 319 319 319 319 319 319 319 319 320 320 320 320 319 319 319 319 319 319 322 322 322 322 321 318 317 305 292 309 316 366 355 353 357 350 352 357 339 331 326 323 322 319 319 317 315 311 310 309 310 312 316 316 310 314 319 321 322 320 322 325 327 327 324 324 323 325 328 327 326 329 330 328 331 336 336 337 339 343 344 345 344 343 342
317 317 317 317 318 318 318 319 318 319 319 319 319 319 319 319 319 318 318 318 318 318 320 322 322 322 322 321 316 318 311 307 315 320 350 353 355 353 352 357 358 330 327 322 321 318 318 316 317 315 314 311 311 310 314 316 315 312 310 320 321 323 321 323 325 325 325 325 324 327 329 325 325 322 327 328 332 335 337 338 339 341 343 345 343 344 342 342
316 316 317 317 317 318 318 318 318 318 318 318 318 319 319 319 318 318 318 318 318 318 320 321 322 322 322 318 320 310 313 311 318 321 351 362 351 353 352 342 333 328 324 319 318 318 318 315 314 320 312 310 311 312 315 314 315 312 314 320 321 321 321 322 325 326 327 327 329 329 327 326 327 326 331 329 334 336 337 339 340 340 340 341 342 343 344 344
316 316 316 317 317 317 318 318 318 318 317 317 318 318 318 318 317 318 319 318 318 319 320 322 322 322 322 318 315 302 300 314 319 344 356 341 341 338 329 326 327 324 321 322 321 319 317 313 315 316 311 310 314 312 313 311 310 317 317 318 319 320 324 326 326 327 327 328 329 327 326 328 330 335 330 332 334 337 338 338 338 338 337 338 340 341 341 342
315 315 316 316 317 317 317 317 317 317 318 318 318 317 317 317 317 318 318 318 318 319 320 322 322 322 318 318 311 295 305 316 321 344 338 335 335 327 322 323 323 320 315 315 319 319 316 315 316 319 317 314 315 312 314 310 311 317 318 318 320 321 323 325 324 326 328 327 329 326 326 327 330 331 323 334 336 337 336 335 336 336 335 336 338 339 339 339
315 315 316 316 316 317 317 317 317 317 317 318 317 317 316 317 317 317 318 318 318 320 321 322 322 320 318 320 304 298 313 320 333 335 331 330 326 322 319 320 320 317 316 315 317 320 320 318 319 320 318 312 313 311 310 311 317 317 318 317 317 321 323 324 325 325 328 326 329 328 325 328 330 331 326 332 336 336 334 333 333 333 333 334 336 337 336 338
315 315 316 316 316 316 316 317 317 317 317 317 317 316 317 317 316 317 318 319 319 320 321 322 323 317 318 317 307 303 317 326 323 324 327 325 320 321 321 320 320 317 316 313 314 318 319 319 320 319 309 315 308 312 309 315 316 315 317 313 316 320 319 322 322 324 327 324 329 328 325 323 325 324 330 334 336 335 333 331 332 331 332 333 335 335 335 336
314 315 315 316 316 316 316 316 316 317 316 316 316 316 316 316 316 317 318 319 320 321 323 323 322 321 318 302 311 319 319 320 318 318 318 321 320 319 318 318 321 319 317 315 314 317 318 318 319 315 316 314 310 307 313 316 316 316 316 315 314 314 314 320 323 324 324 325 328 327 310 313 322 327 331 334 334 333 331 330 330 331 333 333 333 333 334 336
314 315 315 315 315 315 316 316 316 316 315 315 315 315 315 315 316 317 319 319 321 322 323 325 322 319 318 309 316 322 322 321 321 319 317 319 318 315 316 316 317 319 320 317 317 318 319 316 317 315 317 312 309 317 315 314 317 311 313 314 308 306 306 317 321 322 321 326 326 324 310 311 323 328 332 334 334 332 329 329 330 331 333 333 333 333 333 337
314 315 315 315 315 315 315 315 315 314 315 315 314 314 314 314 316 319 320 320 322 323 324 325 322 320 317 318 327 330 352 336 323 323 321 318 317 314 313 315 315 317 317 319 318 319 318 317 322 311 307 315 316 312 306 308 311 311 307 303 306 305 308 316 322 322 318 322 326 322 311 314 322 327 331 333 333 332 329 330 330 332 333 333 333 333 334 337
314 314 315 315 315 315 315 314 314 314 314 313 313 313 315 315 318 320 321 322 324 325 325 320 320 321 315 309 319 340 328 323 324 327 327 321 317 312 314 314 315 315 315 315 318 319 316 317 310 308 309 312 312 308 303 304 305 307 306 305 304 308 309 313 318 322 323 321 324 321 312 316 318 328 331 333 332 331 329 329 330 332 333 333 333 333 335 337
313 314 314 314 315 315 315 314 313 314 313 312 312 313 314 317 320 321 323 324 323 324 323 318 325 322 306 320 329 319 319 323 324 323 321 322 318 314 313 313 312 312 313 314 315 316 315 312 311 313 313 308 306 304 299 299 300 305 306 302 307 308 308 306 315 320 322 321 317 321 317 317 320 326 329 331 331 330 328 329 330 333 333 333 334 334 337 337
313 314 314 314 315 315 314 313 313 313 312 311 311 311 310 317 319 321 318 322 324 325 322 325 322 314 310 321 312 315 323 322 323 321 320 322 319 315 312 310 311 310 312 311 314 311 311 306 309 301 306 308 307 301 298 295 299 301 305 304 304 309 310 309 309 315 320 320 317 318 318 318 321 325 327 329 331 329 328 329 331 333 333 334 334 335 338 338
314 313 313 313 314 314 313 313 313 312 311 312 311 313 317 321 317 319 323 321 320 316 306 315 314 301 298 308 320 320 322 324 323 320 317 317 321 317 314 313 312 308 306 306 304 308 309 306 309 305 301 303 304 304 301 303 305 308 307 306 305 305 306 308 313 318 319 316 315 316 315 317 320 323 325 327 330 327 328 330 331 333 333 334 334 335 337 337
313 313 313 313 313 313 313 313 312 311 310 308 306 309 316 310 307 310 319 321 320 315 311 312 316 314 314 315 315 320 324 325 316 316 317 318 319 316 311 311 309 309 305 301 304 305 309 301 298 300 301 305 308 307 307 307 308 311 310 308 307 308 308 312 313 317 319 317 315 316 318 319 320 322 324 326 327 326 326 327 329 331 331 333 333 334 336 336
313 313 313 313 313 313 313 312 311 311 310 307 305 309 305 303 302 301 308 310 314 318 317 317 317 316 315 318 320 320 316 317 318 314 316 320 318 315 310 308 304 302 302 303 304 307 309 301 301 304 306 308 309 309 308 309 307 310 309 308 307 308 306 311 312 317 318 315 311 317 318 318 320 323 324 326 325 323 324 325 327 330 330 332 332 334 336 336
313 313 313 313 312 312 312 311 311 310 310 305 308 309 312 314 314 314 312 304 311 314 316 318 320 317 322 322 324 323 321 315 315 311 315 317 314 311 307 307 303 300 303 304 304 305 301 300 304 307 310 310 310 310 309 307 305 307 306 306 306 306 310 312 313 316 316 314 311 316 315 316 320 322 324 324 324 324 326 327 328 329 329 330 333 335 335 337
313 313 313 313 312 312 311 311 310 309 306 309 304 305 308 318 321 316 312 307 305 313 312 313 313 314 315 320 322 323 316 314 310 310 312 315 312 312 306 305 301 302 302 302 299 299 299 301 306 309 309 309 309 309 308 307 305 303 304 303 303 311 307 303 310 314 315 313 312 315 314 315 320 322 323 325 325 325 327 329 329 331 330 330 334 336 335 337
313 313 313 312 312 311 311 309 309 308 307 305 304 306 310 313 314 313 310 302 303 309 313 315 316 316 315 314 320 318 314 313 313 308 316 315 310 311 306 306 301 301 300 302 301 299 300 304 309 310 309 309 307 308 307 303 300 303 305 303 303 307 308 309 308 312 313 317 319 315 312 312 315 316 318 323 326 325 327 328 329 331 332 333 336 337 337 339
313 313 313 312 310 311 308 308 309 306 307 306 304 307 310 311 314 315 307 302 303 306 315 314 316 316 317 323 322 313 314 314 314 314 316 316 310 309 306 308 304 299 300 301 301 299 302 308 310 309 309 308 307 306 307 305 299 300 304 305 306 309 310 311 311 310 306 309 316 315 301 304 311 314 317 319 319 322 325 324 326 329 331 333 334 335 337 341
313 313 313 311 311 310 308 302 306 304 305 302 303 306 313 314 315 316 308 300 295 304 312 306 318 312 322 314 317 316 315 309 316 316 316 316 317 311 309 303 305 299 301 300 301 300 301 306 309 308 307 307 306 305 307 306 300 299 299 306 307 308 310 311 310 309 302 303 312 318 306 298 307 310 315 317 316 320 322 323 325 329 331 332 334 335 337 340
313 312 312 311 311 308 300 297 305 306 301 303 305 313 313 313 314 313 302 296 293 306 304 314 311 310 319 314 316 315 300 304 316 316 315 319 312 315 305 300 306 307 305 306 304 299 308 305 306 308 308 306 305 303 307 306 301 298 301 307 307 306 309 311 311 309 305 312 315 315 308 302 301 310 315 316 315 316 318 321 324 327 330 332 335 336 337 340
313 312 311 311 309 309 302 304 302 302 305 307 313 313 311 312 311 311 300 288 288 312 308 306 311 317 315 315 316 311 307 312 307 311 316 316 315 310 307 302 301 301 304 303 294 303 305 304 304 305 306 305 304 306 309 306 303 302 307 308 305 306 309 311 310 308 305 309 304 309 314 302 301 308 315 315 312 313 315 320 322 326 329 331 334 337 337 340
312 312 311 311 310 308 308 304 304 304 311 313 312 310 312 309 308 302 295 286 303 309 315 307 319 314 311 314 311 312 310 312 307 311 315 315 316 310 304 304 303 303 304 304 297 301 306 306 306 307 306 303 307 307 308 307 302 307 308 308 306 306 307 312 309 307 305 305 301 305 310 301 298 306 311 317 313 313 315 319 322 325 328 330 333 336 338 340
312 311 311 310 308 305 306 305 304 309 311 310 309 310 309 305 304 295 292 285 308 300 308 308 306 305 309 307 307 310 309 310 312 311 312 310 311 312 310 311 306 303 302 304 302 303 306 313 313 309 306 308 308 308 308 307 308 309 308 305 304 302 303 306 303 302 301 296 297 307 310 306 296 304 310 312 315 317 318 318 321 325 328 330 332 335 338 340
311 310 310 310 302 305 304 299 303 308 310 310 309 307 303 304 297 290 286 295 306 304 310 305 304 308 305 305 302 308 309 308 309 308 305 310 307 308 307 304 307 303 300 300 301 304 305 307 308 309 313 312 311 309 311 310 308 307 306 301 302 298 298 299 298 297 295 290 296 305 308 307 296 296 309 318 321 322 321 319 319 322 326 329 330 333 337 340
309 309 310 307 307 308 300 298 303 308 308 309 308 303 300 293 296 289 289 309 297 302 302 300 305 305 305 307 305 306 306 307 309 306 302 304 301 301 301 296 299 294 294 294 296 302 301 303 309 309 316 311 309 306 306 308 306 306 303 300 296 289 295 290 295 293 289 290 297 304 310 304 301 304 313 317 320 322 323 323 322 323 325 328 329 331 336 339
308 308 309 309 309 305 305 306 307 307 308 308 306 301 296 291 286 293 294 300 297 306 302 307 304 305 305 304 303 307 309 303 308 307 305 304 302 302 303 302 301 297 291 297 295 297 298 304 306 307 308 313 310 303 300 302 302 301 301 296 294 291 290 285 287 288 290 295 300 303 306 300 300 305 311 317 320 323 324 324 325 325 326 327 328 330 335 339
307 307 305 307 308 308 309 310 309 309 307 315 305 298 295 289 289 308 298 299 300 306 307 305 306 306 304 301 304 306 302 307 306 305 304 301 301 297 301 303 304 303 303 300 295 294 292 295 301 305 301 309 309 308 306 303 301 300 301 301 296 293 289 288 289 288 290 292 296 304 299 293 296 298 311 318 322 323 325 325 325 326 327 327 329 329 334 338
307 306 306 306 308 309 309 311 310 311 308 307 299 294 288 288 292 293 297 300 303 306 304 308 305 304 302 303 305 307 306 301 307 304 302 300 298 298 299 300 304 304 304 295 299 299 297 295 300 307 306 308 307 310 310 307 304 302 302 304 298 297 297 293 293 291 292 292 295 298 296 299 298 308 318 319 321 321 325 324 325 324 325 326 326 327 332 337
305 305 308 306 310 313 310 311 311 311 308 301 294 288 289 293 291 298 297 305 304 302 303 304 303 299 298 299 304 305 309 303 305 304 301 301 302 300 303 303 303 305 301 296 298 295 299 294 303 309 307 306 308 308 308 308 297 300 302 297 300 305 303 298 302 301 301 295 292 299 302 300 305 307 314 320 320 321 323 324 323 323 324 324 325 327 330 336
303 306 304 309 311 315 312 312 312 310 308 299 291 287 293 296 300 301 309 304 303 303 301 295 297 298 297 296 299 304 305 307 303 303 296 302 299 303 302 304 307 305 306 303 300 300 294 294 300 305 305 306 310 309 309 309 305 301 298 299 304 308 305 299 292 295 293 290 291 297 297 297 302 298 312 318 318 320 321 322 323 323 324 323 325 327 329 333
302 303 307 308 311 315 314 313 312 309 306 299 289 300 300 295 302 302 304 303 304 304 299 298 299 304 298 298 297 302 304 302 299 302 297 302 298 307 304 304 307 307 307 308 301 300 302 294 299 303 306 308 309 308 306 309 309 304 303 306 302 296 297 299 296 291 291 290 290 293 298 298 299 300 310 314 316 317 320 321 322 322 323 324 325 327 329 333
302 303 300 305 317 316 314 314 312 308 302 294 291 292 301 300 303 302 305 305 305 302 297 299 297 302 302 299 301 303 302 299 300 300 297 299 297 304 305 307 304 308 308 307 303 302 303 295 294 304 304 307 310 304 298 302 307 315 307 304 306 301 298 295 298 294 294 289 291 289 296 292 303 304 312 315 317 318 320 320 321 323 324 325 325 327 329 331
302 301 298 307 318 318 316 315 309 305 298 289 290 293 300 298 301 303 303 303 302 301 300 300 302 299 301 301 302 300 302 302 300 299 300 300 301 306 305 308 305 306 308 309 304 306 301 299 291 297 305 306 300 302 300 301 300 301 302 300 302 306 302 302 303 297 294 289 286 288 290 293 300 309 315 317 318 319 320 320 322 323 325 326 326 327 329 331
303 301 300 316 318 318 316 311 302 297 295 297 298 297 299 297 300 302 304 306 304 308 303 302 301 298 300 300 301 304 302 302 301 298 300 300 302 296 306 308 308 305 308 307 305 303 301 299 293 296 301 299 299 304 306 305 305 300 301 299 299 296 298 294 291 299 299 292 287 289 288 292 303 317 318 317 319 320 321 322 321 323 325 326 326 327 329 330
300 295 299 315 318 318 310 301 300 302 298 296 293 299 297 308 302 301 302 304 304 303 308 305 305 303 302 302 302 303 302 302 302 299 301 299 303 303 305 309 310 309 305 302 303 306 302 303 299 295 298 299 303 307 310 308 307 305 305 301 303 298 297 295 289 292 299 298 299 294 291 294 305 313 316 317 316 318 319 321 322 323 324 325 326 327 329 331
298 296 307 308 309 307 301 298 304 304 298 300 305 303 304 303 302 302 301 302 302 305 304 304 304 303 305 304 304 303 305 303 305 299 301 303 304 307 308 309 310 308 308 304 306 306 322 301 299 300 302 304 306 307 309 308 308 303 304 303 302 300 300 295 293 294 295 298 294 295 293 292 304 313 315 314 315 316 318 321 321 321 323 324 325 326 328 329
298 298 301 310 312 308 300 294 296 297 299 303 303 303 306 304 303 301 301 302 301 302 302 304 305 306 304 307 305 303 307 301 307 306 303 304 303 310 308 309 310 306 305 302 302 306 302 302 298 293 294 296 299 303 303 306 306 301 298 303 303 302 303 300 300 302 299 296 295 291 288 294 305 317 312 314 316 316 316 318 320 318 320 323 325 327 329 330
298 301 301 305 315 308 298 300 299 300 302 303 303 302 303 304 305 304 303 302 304 303 303 302 305 306 304 306 304 304 305 305 303 307 307 304 305 310 309 309 310 307 309 311 324 308 302 301 298 290 289 288 289 290 292 294 298 302 305 303 304 303 303 301 297 298 292 295 298 293 291 294 304 313 312 312 314 314 314 314 318 320 321 323 327 328 329 331
297 293 301 303 304 304 304 304 301 299 298 300 298 301 303 301 305 307 305 303 305 304 304 304 306 307 304 304 302 303 305 309 305 304 304 309 313 311 314 309 310 309 319 330 324 309 303 305 300 296 294 292 295 295 300 303 301 300 300 303 302 303 304 302 298 294 294 291 298 292 299 301 307 310 308 309 312 313 311 313 318 320 323 327 329 329 330 332
300 296 298 292 299 300 298 301 299 299 295 300 292 300 299 301 303 304 307 301 305 304 304 304 304 302 303 303 303 304 306 306 309 309 307 310 313 314 317 317 314 313 330 325 324 307 304 300 302 301 301 301 301 302 305 306 302 303 301 302 302 302 302 301 297 296 297 296 291 293 300 305 306 309 308 308 310 311 311 314 319 320 322 327 329 330 338 333
293 301 303 301 292 289 294 295 298 296 299 301 297 301 300 301 303 300 304 305 306 306 302 305 305 304 305 303 305 301 310 310 310 307 314 313 309 310 310 315 310 327 328 316 319 306 302 297 302 302 301 303 304 305 307 305 304 303 304 303 302 302 301 300 301 301 301 298 296 298 301 306 308 310 310 310 312 312 312 318 322 322 322 322 324 328 332 332
306 303 302 304 295 296 296 297 298 299 299 300 298 301 299 300 301 305 304 303 304 304 308 302 306 306 308 308 309 303 309 306 305 316 313 308 307 307 306 309 314 317 313 313 313 310 303 298 302 304 302 303 303 305 306 304 303 304 304 304 304 303 301 302 302 303 303 302 304 303 303 307 310 310 311 312 313 314 315 318 319 319 322 323 324 323 330 333
298 298 298 303 300 298 298 299 300 300 297 304 299 299 301 301 300 301 304 303 299 301 309 305 306 307 308 310 309 306 313 314 311 308 314 312 307 309 306 308 306 309 311 309 311 309 305 301 309 304 301 302 303 305 305 303 303 303 305 305 305 305 304 304 304 304 306 304 305 304 305 306 311 313 313 312 311 313 315 315 318 319 322 325 324 324 326 333
302 304 305 299 295 296 301 300 299 298 297 299 298 301 301 300 298 301 300 306 305 304 307 305 307 307 311 312 312 314 316 313 312 311 311 313 307 310 308 309 310 308 309 309 309 311 308 300 308 302 297 299 304 303 303 303 303 303 303 304 304 303 302 304 303 303 306 304 306 304 303 304 309 313 313 313 312 314 314 314 315 316 320 323 323 323 323 324
303 306 306 301 293 300 296 299 299 298 295 300 301 301 299 298 300 301 302 310 312 311 310 309 308 306 312 313 309 310 311 311 311 313 314 314 314 313 312 312 312 311 309 309 310 305 304 301 300 298 296 297 303 303 303 303 301 299 302 303 305 306 307 309 312 312 312 307 305 302 303 309 311 314 312 311 311 313 314 315 315 315 317 319 319 319 321 325
Wind_Speed
22 23 22 21 21 22 22 21 20 19 20 21 20 20 21 21 21 20 19 19 18 17 16 15 16 15 14 14 15 14 13 8 6 1 2 13 10 15 12 4 2 10 9 3 1 1 5 4 4 1 2 0 3 2 3 3 3 3 4 3 1 6 6 5 7 5 5 7 11 13 14 15 11 7 9 12 13 13 11 8 8 9 6 12 14 17 17 16
22 22 22 23 23 22 21 21 20 21 21 21 21 20 21 22 21 21 20 20 19 18 16 15 15 13 14 13 12 14 11 3 7 7 15 14 13 15 14 12 5 9 8 2 5 4 2 4 4 1 1 1 1 3 3 2 4 4 2 6 9 2 6 5 6 7 8 12 13 14 13 14 13 13 10 11 12 12 11 9 11 9 16 16 17 17 17 17
22 22 23 22 21 21 23 23 21 21 20 21 21 20 20 20 21 22 21 20 20 19 16 15 13 13 13 12 12 12 7 4 2 8 16 14 19 17 16 13 9 11 8 3 4 6 8 3 3 6 1 3 3 5 1 4 3 4 6 5 8 8 4 5 4 6 8 11 12 11 10 15 14 12 10 12 15 17 16 12 11 16 17 17 17 16 17 15
23 23 23 22 21 21 22 21 22 22 22 21 21 20 21 21 21 20 21 20 20 20 17 15 13 13 12 12 11 8 1 3 3 5 3 2 9 18 17 15 12 11 6 2 2 3 1 2 3 0 3 3 3 3 3 4 2 3 5 6 9 9 7 6 8 9 6 10 12 10 8 13 12 9 9 17 14 12 14 19 20 19 19 20 19 17 15 16
21 23 23 22 23 24 24 23 22 22 21 20 21 21 20 20 20 20 20 20 21 20 18 15 13 12 11 10 9 4 3 3 6 3 2 7 7 14 17 13 13 8 8 2 2 4 2 2 2 2 3 3 1 1 5 6 5 1 9 5 10 10 10 12 11 11 11 11 10 9 10 6 6 10 18 19 16 11 13 14 20 20 21 22 21 18 15 15
24 24 24 23 24 24 24 23 24 24 23 23 23 22 22 22 20 20 21 20 20 19 16 15 12 12 12 12 6 4 1 3 2 4 3 9 9 8 15 14 13 8 5 2 2 1 1 1 3 1 1 1 4 4 3 4 4 3 5 14 14 11 12 9 13 15 13 10 11 6 4 6 9 8 11 17 16 11 13 17 17 19 20 19 18 17 17 16
24 25 24 24 24 23 23 24 23 21 20 21 21 21 21 21 21 20 19 18 20 18 16 14 12 12 12 12 2 0 1 8 5 9 9 12 4 9 13 11 10 6 5 4 4 2 1 3 2 2 1 3 5 4 9 4 1 5 7 14 14 11 12 9 11 13 12 14 9 6 6 10 12 11 5 10 10 16 14 16 17 18 19 19 18 16 17 16
24 24 24 24 25 23 25 23 24 25 24 24 23 22 21 22 21 21 21 19 18 17 15 12 10 10 10 5 0 2 1 9 17 10 5 8 7 11 11 5 7 5 5 8 6 3 1 3 3 0 1 2 5 4 3 3 3 3 10 13 10 5 8 11 14 14 14 11 11 10 9 4 3 5 8 13 16 17 16 15 17 17 16 14 16 18 16 15
25 25 25 24 24 25 26 27 27 24 22 20 20 23 24 24 22 20 20 20 19 17 12 9 10 8 7 3 2 4 8 8 5 4 7 7 6 10 10 4 4 7 4 3 2 3 3 4 3 4 2 2 2 5 5 2 2 10 14 12 11 12 15 16 16 16 15 8 11 12 9 9 11 15 11 16 18 17 17 16 17 17 15 14 16 15 13 14
25 26 25 24 25 25 27 26 26 26 26 26 24 23 23 23 20 20 20 18 17 13 11 9 6 6 2 1 2 2 8 5 5 7 8 9 7 8 9 6 7 6 4 4 5 5 7 6 3 2 2 6 4 8 3 4 5 4 12 13 17 17 16 15 17 15 11 11 13 14 10 9 3 8 5 8 18 18 17 16 15 16 15 15 15 14 12 14
25 24 24 25 27 28 28 27 27 28 28 27 25 24 22 24 22 21 19 18 15 12 7 5 5 5 2 1 3 7 7 5 5 3 3 9 9 9 8 7 9 6 8 1 7 9 7 3 2 4 1 4 5 10 4 4 9 11 12 13 11 13 16 18 16 15 13 7 12 15 9 7 8 8 12 13 15 19 19 17 15 14 13 12 14 13 9 11
25 25 26 26 27 28 28 27 26 26 27 28 27 24 24 23 22 20 19 16 13 7 5 5 5 2 1 1 4 10 4 1 2 5 2 1 8 12 12 10 10 11 9 6 4 8 6 5 2 0 3 2 6 4 6 4 10 12 19 15 12 14 12 17 19 14 15 8 13 14 12 7 4 10 13 16 15 17 19 17 16 14 11 11 14 13 9 12
26 26 27 28 27 26 26 26 27 27 27 27 26 25 25 23 21 21 18 13 6 4 4 2 2 1 1 3 11 11 8 8 9 7 4 3 6 4 4 4 9 9 8 5 5 5 6 4 0 2 4 1 3 1 5 3 2 10 11 17 13 8 10 6 13 12 16 11 18 13 7 3 4 11 13 15 15 16 16 15 14 12 12 11 11 11 10 9
27 26 26 26 27 29 26 26 27 27 28 27 27 25 24 24 22 21 15 9 7 7 6 5 3 2 2 7 8 4 7 6 8 8 7 7 6 5 4 5 5 4 3 4 7 6 1 1 2 4 2 4 7 1 5 3 5 10 11 9 10 10 5 8 9 13 15 13 17 6 9 4 8 10 14 13 16 17 15 14 14 11 12 12 12 11 10 9
26 26 28 27 27 27 28 28 28 27 27 27 29 27 25 25 21 17 10 4 6 7 4 0 2 1 1 10 7 11 14 6 7 11 6 6 8 4 5 4 7 6 5 6 4 3 3 2 0 2 4 5 6 2 4 1 1 6 9 4 4 10 8 7 8 16 16 6 7 10 6 10 10 11 14 13 14 14 13 13 13 12 12 12 11 12 11 11
23 25 26 26 27 27 27 27 26 28 27 28 28 29 26 22 16 11 4 6 4 3 3 1 2 2 2 8 6 8 1 4 5 12 8 10 10 8 7 8 4 5 3 4 8 6 4 1 4 3 3 5 4 0 1 4 1 1 8 3 7 9 9 4 7 10 21 15 6 7 8 6 4 11 12 13 15 13 13 12 11 12 14 13 11 11 9 9
23 25 25 27 27 27 27 26 26 26 28 27 29 29 23 18 15 8 3 4 4 3 2 1 3 3 1 5 7 7 3 3 4 1 5 10 12 7 4 2 4 5 4 6 4 2 1 2 1 1 3 5 3 4 3 2 1 5 1 5 6 15 10 7 8 6 17 18 9 6 11 13 11 15 14 14 15 13 12 12 11 11 11 11 11 11 9 10
24 25 26 28 29 28 27 26 26 26 27 28 26 25 23 21 2 6 3 1 1 3 3 4 3 1 9 1 6 4 1 3 2 5 3 7 12 5 6 4 3 4 2 3 2 3 2 2 3 6 2 0 2 5 4 5 6 7 1 4 4 6 17 14 12 10 14 14 15 8 11 10 12 16 16 15 15 15 14 13 13 13 12 12 11 10 9 10
26 25 25 26 25 28 26 26 25 24 25 28 24 22 8 3 2 3 2 3 2 1 1 1 1 2 8 5 4 5 4 4 4 3 5 4 4 4 5 4 3 4 2 2 4 4 1 2 2 2 6 3 3 8 8 10 6 10 8 9 7 10 10 12 14 14 19 10 11 13 12 12 16 16 15 15 16 16 14 13 12 12 13 13 11 10 9 9
25 25 28 28 27 26 26 25 24 24 24 21 15 6 2 4 2 1 0 1 4 8 13 14 7 10 13 17 16 13 8 7 5 9 6 4 3 5 5 4 3 3 4 5 2 3 4 4 6 6 7 7 6 8 10 7 6 7 8 8 11 11 8 6 9 14 14 12 13 14 15 17 19 19 18 18 16 14 14 14 13 12 12 12 10 11 11 10
24 25 26 24 25 25 25 26 25 24 22 10 8 3 3 3 5 8 13 13 11 13 14 15 12 11 14 15 11 9 6 7 7 7 12 4 4 6 5 5 5 7 5 5 6 2 4 5 9 8 8 9 10 7 4 4 4 8 6 9 8 11 12 12 11 14 11 12 5 9 16 16 18 17 17 16 17 17 17 16 15 15 13 12 12 12 11 10
26 25 23 24 25 25 26 26 27 24 19 2 1 3 3 4 3 4 6 13 15 9 10 15 14 14 15 16 19 10 8 9 13 7 7 7 4 10 4 7 5 9 4 2 3 2 5 10 9 8 8 7 8 7 3 4 5 6 5 3 7 9 4 6 8 13 9 9 9 10 14 13 16 17 16 18 19 17 18 19 18 18 15 12 12 13 11 9
26 25 24 24 23 25 26 28 25 24 3 1 5 8 7 6 6 8 4 8 16 8 11 14 13 14 16 13 13 8 9 11 11 8 6 7 5 11 7 9 8 5 4 5 9 4 4 7 12 6 5 6 7 7 6 5 3 4 8 6 8 2 6 6 5 14 10 7 12 12 13 9 10 11 15 17 17 13 16 18 18 18 18 17 16 15 13 13
26 24 24 22 23 24 26 27 26 5 2 8 10 9 9 8 11 7 8 3 10 18 11 14 13 14 15 13 4 8 11 8 8 11 7 8 7 6 5 12 6 6 9 8 7 8 6 3 5 6 7 7 9 9 6 4 6 5 9 6 4 4 6 9 8 10 4 3 15 7 4 2 6 8 9 9 11 11 13 13 14 15 18 19 17 15 16 16
23 24 24 23 22 23 27 26 5 4 10 11 6 5 4 7 7 5 5 4 3 10 6 9 8 7 15 7 9 5 7 6 10 7 7 10 6 5 5 4 4 9 6 6 5 5 7 9 4 9 10 8 8 10 10 6 6 5 6 8 5 7 13 6 7 13 3 3 7 19 3 5 5 8 13 10 7 10 11 13 13 13 12 12 15 17 15 15
25 25 23 21 21 23 25 5 3 9 13 9 9 3 9 9 9 7 1 0 9 6 1 7 5 8 6 5 6 10 4 7 11 7 9 10 6 5 3 4 3 10 9 5 6 3 6 6 5 11 11 11 10 9 10 5 8 6 7 10 11 10 7 11 12 10 6 10 12 15 15 4 3 9 11 9 8 13 10 14 14 13 13 14 15 15 16 16
26 26 21 20 17 19 11 5 4 13 9 5 2 8 10 11 7 9 1 2 6 4 4 0 4 2 6 7 9 8 8 7 9 7 10 10 10 5 6 5 3 1 5 1 1 7 5 10 8 7 11 13 11 10 9 6 5 8 6 7 7 7 11 15 16 14 7 1 8 4 3 8 6 13 9 8 9 11 12 13 14 15 15 16 15 16 16 17
24 22 21 18 15 9 5 6 11 6 10 6 9 11 13 11 10 1 3 3 6 2 2 1 3 1 1 6 9 9 3 7 9 8 10 11 7 6 4 8 7 7 6 8 12 1 8 6 10 9 9 11 12 9 8 5 5 7 7 8 5 8 10 15 16 13 5 13 10 10 2 4 4 4 4 8 8 9 14 16 16 17 16 16 17 18 18 19
23 22 20 18 18 16 10 6 2 9 7 4 10 12 11 13 5 2 3 2 4 3 2 2 1 1 1 4 6 8 5 8 5 6 7 11 14 3 10 5 7 10 6 9 8 2 6 7 10 11 8 10 9 8 8 8 6 9 8 3 4 4 1 15 15 13 4 9 11 13 7 4 3 2 5 2 9 13 15 19 19 18 19 18 17 18 19 17
25 22 21 18 14 4 0 4 10 15 8 9 12 13 14 5 1 3 2 5 1 6 1 1 1 4 3 5 4 7 9 5 5 7 8 9 11 5 2 6 5 7 9 6 6 8 5 8 8 8 10 8 9 9 8 8 14 5 2 4 3 6 3 2 4 4 5 5 7 15 11 8 4 6 12 11 13 19 16 10 12 14 16 18 18 18 17 16
25 23 19 13 6 4 3 6 12 13 14 12 11 11 4 1 3 3 4 7 3 6 1 1 2 4 4 6 5 5 9 5 7 7 8 7 10 9 3 3 3 2 4 7 10 9 6 6 9 3 8 9 10 9 9 9 6 6 2 4 4 3 5 4 2 3 5 4 6 11 12 7 6 4 7 15 19 23 20 20 20 20 21 19 16 15 16 16
27 25 23 11 9 5 5 8 1 6 5 5 5 5 1 2 2 4 7 3 3 5 4 3 4 3 8 8 7 8 10 4 3 9 9 11 7 10 9 7 5 7 7 5 9 6 11 12 3 8 10 12 8 9 10 7 4 6 1 4 7 2 1 2 1 4 4 5 7 9 15 3 9 9 14 22 20 16 14 18 22 23 22 19 17 17 15 15
29 26 28 16 10 10 16 19 6 9 12 11 3 1 1 4 5 7 6 0 4 0 4 5 1 3 6 7 9 9 9 9 5 3 12 10 10 11 9 9 4 6 5 2 4 8 9 6 10 10 7 10 9 11 8 8 5 4 7 5 5 2 1 1 3 1 1 5 5 8 13 9 4 9 11 18 24 22 20 17 18 21 22 20 18 16 15 16
29 27 14 8 9 14 11 6 6 4 5 2 2 1 1 2 8 7 12 9 13 4 10 6 12 10 5 10 11 8 9 7 6 3 11 8 12 10 11 11 9 2 4 3 8 7 8 12 12 12 6 8 14 13 11 8 5 7 4 11 9 7 4 2 2 5 6 9 6 3 4 4 6 7 10 19 22 23 15 12 13 17 19 19 18 16 16 15
31 22 11 11 9 13 17 9 6 8 4 2 1 3 6 9 3 5 7 8 6 9 12 10 9 7 6 9 5 9 10 7 11 5 10 9 11 8 11 11 11 6 2 3 4 3 12 7 5 8 5 10 13 13 12 11 7 5 4 7 7 8 6 4 7 6 5 4 3 2 5 5 6 2 3 3 2 2 9 11 11 10 9 11 12 14 14 14
19 10 8 8 5 6 11 10 10 9 7 4 4 3 11 9 6 4 3 2 3 4 8 12 7 6 4 7 5 9 11 4 11 7 3 11 11 11 10 7 11 12 8 8 3 3 2 6 5 5 9 8 10 8 6 9 9 5 5 6 8 8 8 1 1 2 1 2 4 2 1 3 3 4 8 3 9 11 12 12 12 11 12 12 14 14 14 14
12 11 9 4 6 5 10 12 11 9 4 4 4 9 8 5 7 2 2 1 1 3 3 7 5 3 7 3 3 11 8 8 6 8 5 5 9 11 9 9 11 11 13 8 4 3 6 6 5 7 10 8 9 11 8 10 7 4 9 9 1 2 5 6 5 1 0 3 5 2 5 3 1 6 1 2 7 12 14 15 15 14 12 14 14 15 15 15
10 6 8 8 11 7 12 14 14 7 4 6 9 9 1 7 4 8 2 9 9 7 6 3 4 2 6 8 6 7 6 11 6 7 4 10 3 11 12 8 12 12 11 12 7 3 4 4 6 7 10 8 6 6 8 5 7 9 9 4 9 5 4 1 3 1 0 1 2 3 2 2 7 6 1 5 8 11 13 12 11 12 13 15 14 14 14 15
4 3 9 9 3 13 13 14 9 9 3 4 7 5 5 8 6 3 3 3 3 4 4 3 4 1 5 11 9 8 5 12 7 10 6 5 7 11 13 9 9 17 13 12 10 6 0 3 4 4 6 5 4 5 11 10 2 0 4 4 4 6 5 3 7 4 5 3 1 7 2 5 5 6 10 12 10 7 10 10 13 17 17 16 13 13 14 13
5 5 5 4 11 11 15 11 6 2 2 8 6 8 2 5 7 4 6 7 5 3 5 8 6 10 11 11 11 9 4 10 9 7 9 5 9 7 16 13 6 14 17 13 7 8 8 4 5 4 6 12 10 6 10 10 11 4 4 5 1 1 2 6 0 5 7 4 5 4 2 3 4 5 9 12 13 14 17 18 15 13 13 14 15 15 15 17
3 2 6 4 8 12 11 6 3 5 4 3 1 3 6 7 3 2 5 7 8 9 11 9 8 9 10 10 15 9 9 9 9 7 6 6 11 2 11 12 9 11 15 16 13 7 3 6 8 6 4 6 7 6 12 12 12 7 9 8 7 4 5 7 6 3 2 5 3 3 6 6 7 3 10 12 13 14 15 15 12 11 14 15 14 15 15 14
3 4 5 3 6 2 3 0 3 2 1 5 5 2 5 6 9 8 6 9 12 9 5 10 12 11 12 11 12 14 11 12 8 6 4 8 9 9 8 17 16 12 12 12 12 10 6 3 4 6 8 7 8 8 14 12 11 9 11 8 9 4 5 5 4 5 0 3 5 5 3 5 5 4 8 7 6 7 10 12 14 13 14 14 13 13 14 18
1 7 10 16 16 5 2 5 3 2 3 3 3 10 10 11 12 8 8 5 7 5 5 8 12 11 13 11 12 11 12 8 5 5 3 10 15 19 14 23 18 14 14 10 11 10 7 4 3 3 4 8 8 8 11 9 9 4 4 4 8 7 7 6 6 7 7 2 3 0 2 6 3 3 6 7 8 9 11 14 15 13 12 13 13 13 15 13
4 7 10 5 6 5 3 6 6 5 5 6 9 11 10 10 10 9 8 8 6 5 8 8 11 11 12 10 7 7 5 6 7 8 5 7 10 17 13 22 21 11 12 6 11 9 5 4 5 2 2 1 6 3 6 3 5 3 3 5 5 6 8 4 5 1 3 6 7 7 6 4 4 1 5 8 11 12 13 11 14 13 11 12 13 13 14 16
7 5 7 7 3 5 5 4 5 6 4 7 8 10 10 9 10 15 13 11 7 9 7 10 11 9 10 11 16 15 16 11 7 4 4 4 7 12 18 22 23 15 16 13 18 9 8 4 8 7 8 7 8 11 10 7 7 1 3 6 8 10 11 6 3 2 3 2 4 4 4 7 4 2 2 6 11 9 8 7 7 14 13 12 10 11 13 14
3 5 6 4 3 1 2 1 2 4 5 5 9 9 10 12 10 9 10 13 14 13 12 12 13 11 13 15 16 12 7 4 5 3 6 2 1 2 6 14 21 18 20 21 16 10 3 5 6 9 10 10 11 8 8 7 4 6 5 9 7 7 11 8 6 6 9 4 7 6 7 3 3 3 5 8 11 17 10 6 9 6 6 10 10 11 12 13
3 2 4 7 7 2 5 3 6 7 6 6 3 3 9 12 12 11 9 8 6 11 10 11 7 7 8 13 10 7 6 7 7 7 5 2 2 2 4 6 6 15 23 19 16 8 3 6 7 12 13 12 10 8 8 12 10 11 9 11 8 9 6 8 9 8 7 10 6 5 5 12 12 10 10 11 11 8 6 7 9 8 9 11 12 12 13 12
1 4 3 3 2 5 10 7 9 12 12 8 4 4 9 13 13 11 8 8 11 6 4 3 7 11 12 12 13 11 2 4 4 6 5 2 4 4 5 2 2 4 12 11 13 8 6 6 7 9 10 16 14 11 5 8 11 8 12 11 12 9 7 10 8 9 10 9 10 7 10 15 16 17 17 18 17 15 14 14 14 12 9 6 7 9 11 13
3 3 2 8 5 5 7 13 14 11 11 8 4 7 11 12 15 12 6 7 8 6 2 4 2 2 3 3 2 5 2 3 4 1 1 5 5 3 5 4 1 3 1 8 8 3 5 8 7 12 9 8 10 11 7 10 8 15 15 13 12 11 9 12 10 6 10 8 13 13 14 15 16 14 17 19 12 13 11 8 7 9 11 9 8 9 10 10
4 6 5 7 4 8 9 8 7 8 8 9 4 5 8 11 14 15 12 6 5 9 3 6 3 3 6 8 5 3 1 2 3 3 2 2 8 2 3 3 3 4 6 2 6 4 7 4 12 12 10 13 9 9 5 5 8 8 13 12 9 11 15 15 13 13 10 6 1 9 15 13 9 15 17 9 6 5 8 7 11 10 10 10 10 10 10 11
5 6 6 7 8 4 6 6 6 7 6 4 1 5 10 12 14 17 17 9 5 5 6 10 6 3 2 4 4 2 4 5 6 6 5 1 4 4 2 3 2 6 4 1 1 2 15 3 3 8 8 5 4 4 3 4 4 7 7 6 4 2 5 3 5 1 5 6 6 10 11 12 12 2 2 6 8 13 13 10 8 7 9 11 10 10 10 9
7 5 5 3 3 5 6 6 8 6 4 1 6 10 8 16 17 20 9 3 3 7 8 9 10 2 0 3 3 9 10 10 12 10 6 4 5 8 5 7 5 3 1 2 3 2 5 6 4 5 11 3 4 7 7 9 7 4 6 4 3 4 4 4 3 4 2 6 8 5 9 12 11 8 9 5 8 11 12 11 11 8 9 10 10 9 8 9
Wind_Direction
350 350 348 347 346 345 345 343 342 341 339 339 337 336 334 333 333 334 335 336 336 335 333 331 330 326 327 327 326 327 329 331 327 203 196 243 208 217 224 245 238 191 168 164 293 344 285 300 277 256 240 125 243 206 217 151 149 118 142 114 175 176 163 209 160 179 153 116 115 118 129 123 123 136 125 122 124 128 135 127 111 122 129 125 132 137 142 144
349 348 346 346 345 342 341 341 340 338 338 337 335 334 334 333 332 332 332 335 336 335 334 332 329 327 325 324 327 328 330 287 290 270 235 236 186 213 219 215 176 160 154 182 205 218 237 277 258 348 225 283 206 210 127 244 142 160 127 127 199 196 209 153 173 163 134 130 133 132 137 131 141 141 148 135 135 128 113 122 136 118 111 122 134 141 145 152
348 346 345 344 340 338 342 341 339 337 335 335 333 331 332 329 330 331 331 332 334 335 334 333 330 326 326 324 324 331 332 314 255 264 263 249 227 214 208 197 169 161 168 179 212 192 194 219 30 8 291 254 212 246 168 247 128 206 118 168 196 198 181 158 158 149 137 131 127 142 144 131 149 147 158 126 130 130 136 139 128 126 130 136 141 146 145 149
347 344 343 341 338 337 339 339 338 336 334 333 331 329 328 329 329 329 329 329 332 333 333 331 328 327 321 317 326 326 268 276 280 245 232 111 214 216 209 198 171 178 200 250 229 200 235 342 331 282 274 222 266 205 223 224 154 216 146 188 187 172 141 179 163 140 122 124 130 132 141 139 161 153 134 128 122 146 150 150 146 145 141 140 146 147 151 150
344 343 341 338 337 339 337 337 335 334 333 330 329 326 326 327 325 326 326 328 330 331 329 330 329 324 318 313 321 348 324 24 267 219 241 330 265 214 199 179 169 177 188 178 6 284 271 255 279 249 194 273 254 271 236 226 179 132 187 135 139 152 155 173 147 125 118 117 112 122 124 153 146 113 133 138 139 166 162 155 144 142 141 145 148 151 150 154
345 342 340 338 337 336 334 334 336 334 332 331 330 328 326 326 324 325 325 325 326 327 327 329 328 327 320 316 302 305 88 302 276 290 354 336 358 189 172 158 164 162 162 207 200 303 32 330 190 197 282 154 226 214 281 239 164 102 139 141 156 167 154 163 141 137 130 114 110 103 135 122 118 123 145 142 148 159 151 148 142 138 141 141 141 145 148 154
343 342 340 338 336 334 331 333 330 328 328 327 325 323 323 323 323 322 320 320 324 324 323 324 323 324 322 308 257 270 153 265 319 244 335 359 56 139 146 143 145 134 140 164 227 202 155 202 223 228 219 257 283 235 252 253 258 130 137 150 163 168 147 143 128 118 113 116 112 114 111 109 124 126 161 128 135 137 141 139 135 133 136 143 145 150 152 157
341 340 339 337 336 332 330 327 330 332 331 330 326 321 321 320 321 320 321 321 319 320 317 320 324 327 333 326 132 349 72 252 248 263 271 90 97 130 124 114 141 131 157 202 180 164 233 242 228 294 223 204 237 249 260 279 194 137 127 154 156 140 123 123 121 113 112 109 118 107 95 100 101 119 117 125 129 132 134 133 133 136 140 142 144 152 157 159
341 340 338 336 333 332 330 331 330 328 326 324 322 323 321 322 319 316 317 319 319 317 311 311 318 321 327 276 112 338 263 231 237 153 139 121 134 132 131 145 166 163 197 204 146 180 180 251 217 185 286 348 306 302 296 232 105 156 147 143 143 131 123 122 116 116 118 120 116 97 95 86 94 90 93 131 130 134 134 135 138 140 142 141 148 152 155 163
340 339 337 333 332 330 332 331 328 328 326 326 323 322 319 317 314 313 313 316 316 312 302 305 315 337 331 284 55 354 261 242 280 167 152 136 145 140 160 151 158 179 192 210 147 206 206 221 162 46 306 297 273 268 281 200 153 154 134 135 131 127 119 121 120 123 128 128 128 116 114 118 96 111 108 128 132 134 135 139 144 146 149 149 152 157 161 165
340 338 335 333 333 333 332 329 330 328 327 324 322 320 317 316 313 310 310 312 312 303 290 301 290 319 286 262 120 238 260 325 36 54 119 142 144 147 191 171 171 181 204 191 186 208 232 250 301 313 25 226 332 307 304 217 131 126 122 94 98 116 123 126 121 125 120 116 126 117 112 85 75 107 140 144 141 140 139 145 150 154 156 152 157 159 164 160
339 337 335 333 335 333 331 329 326 325 324 322 320 318 316 313 310 306 306 309 305 292 277 293 287 252 270 268 203 232 255 51 3 51 26 182 173 191 190 182 173 193 180 191 208 225 219 238 251 104 229 12 298 342 271 184 134 144 122 107 119 122 125 135 135 150 126 128 125 110 90 76 106 125 140 143 145 146 143 149 154 157 154 155 159 162 163 163
339 337 335 335 333 331 328 327 326 325 324 319 318 316 315 312 308 304 303 304 302 251 243 210 158 275 60 315 222 236 255 276 288 289 292 236 290 292 232 211 191 195 190 160 228 229 210 228 142 215 251 312 283 243 296 330 138 112 100 126 128 113 127 172 131 137 122 148 131 124 90 183 124 135 145 149 149 149 145 152 159 157 155 159 160 166 166 162
338 336 334 333 331 331 329 326 325 324 322 319 317 315 312 309 307 302 303 288 257 236 226 221 264 253 137 249 273 230 237 231 245 274 242 228 240 261 228 241 240 222 181 190 247 254 268 206 187 230 252 251 272 357 329 272 148 130 132 121 139 122 161 197 149 148 127 157 145 115 124 217 156 146 149 156 152 153 153 158 162 157 160 162 167 169 171 178
336 335 335 332 331 331 330 327 325 323 321 320 317 314 312 308 305 304 303 268 224 227 195 220 215 63 359 262 268 269 246 236 262 245 207 193 204 256 228 236 245 234 205 213 239 239 215 244 239 247 269 222 230 57 313 267 17 134 118 154 128 124 174 190 176 149 130 165 137 89 106 167 170 162 159 156 155 154 154 163 164 162 165 169 170 174 172 181
334 333 332 329 331 330 328 327 323 322 320 321 318 313 311 304 299 302 262 231 188 201 202 188 193 173 327 294 271 306 325 115 239 232 218 189 189 210 201 205 234 261 246 258 233 254 254 230 262 214 258 276 259 100 26 301 334 344 136 193 143 138 162 131 223 167 145 146 175 131 152 133 187 177 165 159 156 156 155 163 167 164 169 170 176 178 174 175
334 332 330 330 330 328 327 325 322 320 321 319 319 313 306 297 298 223 218 182 209 196 197 270 116 149 281 243 324 315 274 244 243 293 155 191 187 196 144 203 245 256 263 270 263 271 235 191 258 299 227 219 152 107 50 275 268 191 67 159 153 149 158 168 201 210 150 147 175 147 133 185 164 173 171 167 159 158 161 166 168 165 172 176 179 183 175 179
334 331 330 328 328 326 325 324 321 321 321 318 319 305 303 301 254 122 62 188 212 183 232 245 236 316 270 287 276 230 317 272 233 241 225 180 189 170 154 185 255 228 273 286 284 222 157 226 181 214 302 348 91 70 141 223 201 174 182 123 130 168 168 166 172 198 160 168 147 160 143 167 163 168 172 173 165 164 169 170 169 168 173 179 185 187 175 183
332 329 327 328 326 325 324 322 320 323 323 317 312 294 307 59 142 288 168 178 126 2 32 142 167 299 263 288 262 301 303 268 246 183 239 208 180 171 178 177 192 180 229 162 277 169 232 246 15 114 227 240 210 143 168 218 189 181 169 167 162 167 193 178 181 173 163 161 143 152 156 161 163 174 174 174 170 169 176 170 168 173 175 182 186 187 179 182
330 328 330 329 325 324 322 321 319 323 329 331 346 336 88 335 28 333 222 330 232 244 253 255 203 248 275 271 272 278 284 258 252 226 223 214 171 172 197 176 208 177 185 198 260 232 142 199 225 202 220 227 233 179 201 204 199 225 176 158 175 175 191 193 182 171 168 147 170 166 159 163 168 177 178 174 171 172 171 174 174 176 179 183 183 189 184 180
329 330 328 324 325 322 321 319 319 322 327 311 302 334 1 8 351 334 327 291 257 252 251 254 235 229 242 266 267 269 299 292 224 211 218 189 199 142 211 178 187 210 211 192 183 254 147 221 236 216 212 218 236 228 180 222 226 222 215 175 193 174 190 193 181 171 170 141 193 166 158 168 174 177 177 172 168 179 177 176 178 180 181 183 181 186 184 181
330 328 325 325 325 323 320 318 318 319 324 270 312 0 288 267 234 272 321 300 297 255 246 245 246 254 256 248 259 248 255 268 277 227 224 177 189 176 217 194 183 203 220 181 207 234 188 215 233 218 219 235 249 256 205 192 239 247 225 271 190 214 180 187 170 171 180 126 175 173 159 178 179 179 178 175 180 183 179 177 179 176 179 179 182 184 174 162
330 327 326 323 325 324 320 316 316 320 324 18 321 313 269 252 295 304 251 261 275 250 235 242 245 241 254 252 250 230 225 240 244 234 207 191 155 199 161 197 184 198 199 190 192 172 213 242 231 222 221 230 260 251 250 241 221 225 245 215 226 197 143 213 206 170 176 155 165 177 164 180 188 186 181 185 181 182 183 180 177 177 177 177 182 181 173 172
326 324 323 325 324 324 320 315 312 309 184 299 273 234 256 281 291 319 339 267 294 289 217 234 226 235 243 240 232 202 215 229 218 224 203 180 182 154 171 185 177 185 208 200 193 188 204 240 218 223 234 225 237 250 245 227 250 232 219 214 189 185 234 198 184 165 124 28 148 125 72 187 199 191 202 203 193 176 180 178 180 185 182 180 176 174 175 175
322 323 323 324 328 323 320 316 338 360 299 296 244 245 257 298 316 347 329 296 277 273 153 234 194 223 231 229 232 235 202 225 229 197 188 183 174 150 207 180 145 209 207 205 198 187 233 246 188 204 232 240 230 251 243 208 235 251 213 194 196 181 208 225 145 146 63 123 185 144 114 228 222 224 204 184 181 191 182 177 184 183 183 174 174 182 180 175
323 323 323 325 326 331 311 330 42 335 324 291 260 295 332 329 322 323 264 27 290 277 102 245 137 241 163 215 173 220 212 234 207 194 173 189 172 179 152 226 172 195 207 192 207 199 205 241 195 201 218 234 237 235 243 200 229 234 253 190 202 206 189 155 170 138 132 162 212 176 159 229 245 223 217 195 182 191 189 188 184 183 181 182 182 181 179 176
321 321 320 325 327 342 4 312 2 336 326 296 357 339 329 323 324 312 58 331 291 230 201 288 164 265 176 164 179 148 189 229 186 180 176 170 193 174 162 215 175 172 185 171 164 225 177 216 228 216 211 228 237 238 244 205 201 245 236 199 198 181 169 169 169 173 187 20 157 204 59 137 178 230 216 194 182 191 196 196 189 189 187 185 184 183 183 180
316 317 317 321 319 341 223 288 336 308 237 260 347 333 323 315 316 315 84 350 260 258 192 171 233 351 251 165 151 184 219 165 169 197 183 167 183 183 195 180 183 193 189 185 209 216 191 200 213 218 214 226 230 223 237 179 189 230 246 206 189 175 182 172 175 180 161 139 169 215 121 67 210 259 137 171 187 208 204 195 196 193 192 190 186 185 185 183
313 314 314 317 315 297 258 213 205 250 237 319 329 324 315 314 286 104 127 248 270 286 52 230 296 165 298 127 169 202 211 164 195 172 178 163 189 125 209 203 190 198 215 199 205 240 216 196 202 216 213 228 238 233 229 170 218 251 230 166 178 141 170 178 179 169 132 140 185 203 205 145 266 254 176 204 208 209 206 201 196 192 192 191 189 189 187 186
311 311 314 317 317 286 201 173 235 242 285 314 311 305 303 298 29 46 23 246 298 293 268 355 294 186 196 159 198 201 206 184 202 158 162 174 193 182 248 161 203 204 216 215 205 212 213 215 189 206 216 227 230 235 220 196 220 235 211 234 255 42 92 115 51 102 109 189 216 201 199 172 224 219 184 173 208 208 201 193 197 193 197 197 193 189 187 186
310 308 309 312 290 283 301 256 251 247 248 277 285 287 296 2 115 120 225 238 311 250 262 164 243 112 164 186 189 202 213 179 200 161 164 175 186 193 179 236 173 200 210 217 226 229 250 227 211 201 211 220 224 236 233 207 208 203 198 177 220 323 18 42 8 26 150 242 245 202 206 191 211 278 234 216 210 206 188 185 186 190 195 196 195 192 189 184
311 309 304 293 248 240 208 235 143 86 28 327 335 337 5 65 1 164 223 327 322 256 188 209 227 171 198 187 187 181 201 204 209 165 165 178 180 190 205 201 165 192 224 184 221 226 233 234 237 218 207 206 209 231 249 234 203 209 216 72 172 252 213 250 187 207 205 189 239 184 187 201 225 219 197 211 224 220 198 189 183 187 191 190 191 192 186 185
312 308 304 284 247 217 233 239 306 325 347 337 356 13 119 118 220 225 256 106 249 69 4 350 293 216 192 183 205 198 193 210 197 201 165 181 173 203 206 198 177 152 194 210 195 208 243 246 215 228 215 205 201 207 224 244 236 171 192 133 131 144 129 167 252 194 284 293 272 178 173 201 224 260 234 209 215 213 200 192 181 183 186 185 187 189 186 187
311 310 307 255 205 211 229 212 220 266 289 300 102 38 59 163 243 201 218 218 250 312 332 329 334 318 227 201 202 177 189 217 195 191 174 175 182 189 214 218 201 153 161 187 195 188 206 232 232 198 226 185 204 213 202 207 195 207 154 156 175 156 155 212 191 186 196 200 235 245 114 233 174 239 206 206 209 210 193 175 174 187 186 182 182 184 184 186
312 300 269 272 236 235 227 182 168 175 197 140 107 137 178 228 240 214 223 233 245 296 290 305 302 298 260 248 232 192 179 194 217 164 182 170 193 189 195 215 214 188 147 174 234 154 219 229 246 203 220 190 202 204 195 189 215 215 149 95 113 201 128 176 200 165 203 220 245 221 198 195 191 248 313 212 274 102 153 162 169 165 173 176 177 182 185 187
313 314 287 259 226 236 175 182 174 175 161 123 138 179 219 198 213 173 239 182 248 273 318 325 323 287 279 245 219 211 187 191 200 209 201 188 189 194 192 203 213 192 186 196 202 215 190 243 241 226 205 221 201 155 186 155 196 241 167 189 199 178 134 171 295 221 93 69 251 201 335 312 307 348 6 93 143 151 154 167 166 170 168 170 180 184 185 185
326 325 323 260 238 166 145 150 158 165 146 140 151 226 226 266 235 215 247 250 3 350 349 1 314 12 317 281 239 201 193 196 203 191 230 173 199 196 191 211 206 197 203 167 249 200 158 230 271 191 220 232 219 169 176 183 153 143 196 227 233 93 125 144 201 316 51 155 262 358 241 291 138 265 309 65 144 166 168 174 175 174 164 171 183 184 182 185
316 297 257 254 254 151 132 147 147 143 135 158 213 238 219 249 223 234 357 335 321 344 322 312 281 285 268 295 280 219 161 191 187 190 221 177 241 186 185 206 203 214 199 192 201 264 170 278 268 220 215 208 228 193 210 215 159 155 199 177 149 204 198 307 101 151 146 257 255 302 233 253 185 233 195 191 185 180 178 171 167 173 176 182 181 183 185 185
266 303 311 285 118 128 136 147 141 140 122 176 228 244 253 257 273 282 23 301 300 312 280 249 273 242 309 294 297 300 189 199 178 190 191 191 214 187 202 181 201 210 209 186 201 234 270 198 285 288 211 186 195 163 216 210 281 189 100 183 193 133 178 132 205 185 129 234 150 283 335 246 217 217 194 194 188 179 161 170 185 185 186 185 177 174 177 177
350 352 274 340 106 126 140 144 115 113 118 207 208 231 310 284 275 264 238 256 279 250 246 273 252 283 280 275 288 287 266 234 181 206 191 172 209 195 198 187 190 200 213 201 197 180 236 138 237 278 237 164 216 187 207 189 196 205 160 192 285 224 234 143 40 137 170 163 178 198 281 274 257 212 191 191 177 177 173 185 192 186 187 189 183 176 180 180
303 202 275 43 109 129 143 123 97 192 216 266 234 265 270 260 298 278 307 234 233 217 244 251 258 257 274 300 287 279 280 254 225 208 191 181 179 178 216 196 183 199 203 216 213 182 198 183 213 266 308 220 211 206 195 193 191 170 162 188 176 118 117 179 246 346 108 115 190 158 241 263 263 196 185 184 191 180 188 178 175 185 188 192 191 182 177 175
342 346 255 96 112 197 6 193 210 172 211 235 242 218 262 271 266 266 249 260 256 270 211 253 252 250 265 259 255 274 266 265 241 232 202 174 197 180 198 213 197 187 185 210 214 203 170 145 147 213 240 232 224 203 212 180 176 180 160 204 184 151 114 134 183 256 331 227 136 144 149 270 241 193 178 187 165 180 173 177 186 190 194 195 188 175 178 181
338 246 272 290 286 295 293 282 282 238 230 237 267 263 264 270 274 284 285 263 272 251 255 248 255 264 250 251 259 254 256 273 243 216 213 198 195 202 184 203 204 191 185 201 210 214 147 200 164 252 271 269 244 228 213 174 162 135 203 139 155 174 166 164 167 187 175 193 125 222 219 257 282 219 167 157 165 173 187 185 188 191 196 195 184 172 180 193
291 285 306 277 260 184 157 214 249 247 256 264 250 260 244 254 262 264 244 241 234 248 248 264 270 246 274 271 274 282 308 278 246 230 237 197 219 211 188 199 194 199 178 181 204 180 201 194 160 138 231 291 283 275 245 218 175 158 169 165 180 167 158 156 118 65 176 226 168 137 211 273 282 183 166 165 171 184 193 194 181 187 198 195 185 180 181 186
283 255 234 289 273 192 211 214 241 271 266 271 268 263 267 252 240 247 254 257 247 251 257 250 256 288 286 306 297 294 283 263 290 246 235 194 227 207 206 199 194 195 197 182 192 149 200 185 168 191 188 191 203 200 206 226 216 223 156 179 186 162 179 151 187 187 194 272 118 148 233 253 274 27 197 209 173 182 193 179 192 173 180 185 180 177 180 179
317 330 300 297 338 260 245 299 285 279 286 310 313 294 290 285 284 279 263 253 242 248 245 267 275 289 291 293 284 277 279 300 287 331 330 312 324 256 225 221 195 196 203 191 180 149 175 180 164 171 177 191 204 200 230 155 178 207 191 187 205 200 187 172 125 124 194 204 173 228 174 204 203 182 203 214 182 180 183 181 170 174 173 177 170 166 174 183
307 273 314 333 315 354 344 11 24 20 340 330 298 304 298 296 298 285 262 278 249 235 243 233 258 273 286 279 271 282 283 304 327 332 325 312 275 268 219 161 221 229 204 197 180 174 118 193 193 178 197 209 202 212 199 179 194 199 200 209 196 192 180 160 155 198 177 111 216 255 193 150 195 194 198 201 202 186 171 168 168 173 173 176 176 168 176 185
234 270 348 15 317 303 352 335 355 327 306 310 269 271 287 300 295 287 288 259 279 238 224 146 212 238 248 267 295 284 360 317 339 325 325 307 334 307 327 128 117 238 230 221 178 174 145 192 205 159 213 220 213 208 212 195 192 199 207 207 202 187 178 191 203 193 138 174 199 228 194 177 192 192 194 192 188 186 174 178 175 175 170 171 161 150 168 181
251 325 316 15 337 318 304 290 297 291 298 299 270 275 285 292 296 289 273 293 282 285 211 260 250 14 349 331 308 294 315 5 342 318 330 325 334 319 350 329 262 74 288 226 196 175 154 205 187 193 208 234 221 217 179 181 207 200 208 209 206 193 187 188 206 214 182 198 204 188 182 201 184 194 193 195 189 169 173 171 154 144 164 172 153 149 168 181
8 345 330 333 294 289 283 289 296 298 293 296 291 279 305 305 299 313 311 283 282 270 213 239 262 340 349 1 337 291 261 181 191 258 298 358 320 342 311 210 268 346 31 303 208 214 198 248 187 184 199 221 228 224 213 191 172 227 218 215 217 209 203 196 203 200 184 222 213 155 176 217 233 193 190 182 155 133 120 150 165 169 155 157 160 169 170 176
326 301 312 311 314 278 288 295 297 293 289 287 250 308 315 310 311 311 294 270 289 326 343 330 320 4 341 37 312 336 336 325 289 247 251 282 288 281 311 291 46 327 355 331 350 270 201 239 189 157 168 200 195 146 158 169 177 201 190 184 197 165 238 234 218 217 158 205 185 165 176 211 224 235 72 109 147 157 160 162 151 161 168 159 169 180 163 169
310 299 329 328 291 293 310 296 299 310 273 315 351 317 313 309 306 306 297 268 341 341 333 334 324 97 343 75 5 320 306 314 302 287 281 266 242 276 229 249 269 259 267 278 206 160 218 150 159 162 165 223 211 115 88 61 35 317 240 201 117 84 95 79 79 107 143 148 114 151 227 212 204 154 141 174 171 162 154 165 164 172 171 152 159 166 166 166